Regional Weather Roundup
Issued by NWS Upton, NY

Current Version | Previous Version | Graphics & Text | Print | Product List | Glossary Off
Versions: 1 2 3 4 5 6 7 8 9 10 11 12 13 14 15 16 17 18 19 20 21 22 23 24 25 26 27 28 29 30 31 32 33 34 35 36 37 38 39 40 41 42 43 44 45 46 47 48 49 50

000
ASUS41 KOKX 211605
RWROKX

REGIONAL WEATHER ROUNDUP
NATIONAL WEATHER SERVICE NEW YORK NY
1200 PM EDT THU AUG 21 2014

NOTE: "FAIR" INDICATES FEW OR NO CLOUDS BELOW 12,000 FEET WITH NO
SIGNIFICANT WEATHER AND/OR OBSTRUCTIONS TO VISIBILITY.

NYZ071-072-176-178-NJZ106-104-211700-
NEW YORK CITY METRO AREA


CITY           SKY/WX    TMP DP  RH WIND       PRES   REMARKS
CENTRAL PARK   MOSUNNY   80  61  52 VRB6      30.07F
LAGUARDIA APRT PTSUNNY   80  61  52 S9        30.05S
KENNEDY INTL   PTSUNNY   78  63  59 S8        30.07S
NEWARK/LIBERTY PTSUNNY   79  63  57 SE8       30.05F
BRNX BOT. GARD   N/A    N/A N/A N/A SE3       30.05F
TETERBORO      PTSUNNY   80  56  43 S6        30.04F
$$

NYZ177-179-078>081-211700-
LONG ISLAND NEW YORK

CITY           SKY/WX    TMP DP  RH WIND       PRES   REMARKS
FARMINGDALE    PTSUNNY   75  62  64 SE8       30.06F
ISLIP          PTSUNNY   76  61  59 S7        30.05F
SHIRLEY        PTSUNNY   76  63  64 SE9       30.07F
WESTHAMPTON    MOSUNNY   75  61  61 SE9       30.08F
MONTAUK POINT    N/A     74  65  73 NE7       30.09F
$$

NYZ052-065-067-211700-
HUDSON VALLEY

CITY           SKY/WX    TMP DP  RH WIND       PRES   REMARKS
WHITE PLAINS   MOSUNNY   77  63  61 SE10      30.06F
NEWBURGH       CLOUDY    75  61  60 VRB6      30.06F
MONTGOMERY     PTSUNNY   75  65  70 W5        30.04F
POUGHKEEPSIE   PTSUNNY   74  64  71 SE6       30.04F
ALBANY         CLOUDY    71  64  78 S7        30.03F
$$

NJZ001-105-106-008-010-013-015-019>022-104-211700-
NEW JERSEY

CITY           SKY/WX    TMP DP  RH WIND       PRES   REMARKS
NEWARK/LIBERTY PTSUNNY   79  63  57 SE8       30.05F
TETERBORO      PTSUNNY   80  56  43 S6        30.04F
CALDWELL       CLOUDY    77  60  55 VRB5      30.05F
MORRISTOWN     CLOUDY    81  61  50 S7        30.05F
SOMERVILLE     PTSUNNY   80  59  48 S5        30.03F
LINDEN         PTSUNNY   83  64  51 S9        30.07S
SUSSEX         CLOUDY    80  61  52 S6        30.04F
ANDOVER          N/A     78  62  57 VRB3      30.05F
TRENTON        MOSUNNY   80  59  48 VRB6      30.04F
MILLVILLE      PTSUNNY   81  66  60 CALM      30.05F
ATLANTIC CITY  SUNNY     79  64  60 E9        30.05F
WRIGHTSTOWN    MOSUNNY   82  62  51 S5        30.03S
TOMS RIVER     PTSUNNY   81  63  54 SE6       30.06S
BELMAR         CLOUDY    77  63  61 SE8       30.06S
$$

PAZ047>061-062-071-211700-
EASTERN PENNSYLVANIA

CITY           SKY/WX    TMP DP  RH WIND       PRES   REMARKS
PHILADELPHIA   PTSUNNY   80  66  62 SW3       30.05F
ALLENTOWN      CLOUDY    77  66  68 VRB5      30.05F
SCRANTON       MOSUNNY   80  66  62 W6        30.03F
$$

CTZ002-004>006-009-010-012-RIZ004-006-007-MAZ004-011-015-211700-
SOUTHERN NEW ENGLAND
 IN CT

CITY           SKY/WX    TMP DP  RH WIND       PRES   REMARKS
BRADLEY INTL   CLOUDY    73  63  70 NW6       30.06F
HARTFORD       MOSUNNY   76  59  55 S5        30.06F
DANBURY        PTSUNNY   74  64  71 SE10      30.08F
WTRBRY/OXFORD  PTSUNNY   73  63  68 S10       30.09F
BRIDGEPORT     CLOUDY    75  64  68 SE10      30.06F
MERIDEN        MOSUNNY   78  58  49 S8        30.06F
NEW HAVEN      PTSUNNY   75  60  59 SE9       30.07F
CHESTER        PTSUNNY   73  61  64 E6        30.09S
GROTON         CLOUDY    71  65  81 SE12      30.07S
WILLIMANTIC    CLOUDY    75  52  44 SE6       30.08F

 IN RI

CITY           SKY/WX    TMP DP  RH WIND       PRES   REMARKS
PROVIDENCE     PTSUNNY   73  63  68 NE5       30.08F
BLOCK ISLAND   PTSUNNY   72  64  78 E10       30.08F
WESTERLY       MOSUNNY   75  63  66 SE10      30.08S

 IN MA

CITY           SKY/WX    TMP DP  RH WIND       PRES   REMARKS
BOSTON         PTSUNNY   69  62  78 E8        30.10S
WORCESTER      CLOUDY    69  51  52 E6        30.10F
WESTFIELD      LGT RAIN  69  63  81 N6        30.08S
PROVINCETOWN   MOSUNNY   75  66  73 MISG      30.09S
NANTUCKET      CLOUDY    72  61  68 E13       30.07F
$$

ANZ330-335-338-340-345-350-353-355-211700-
COASTAL MARINE OBSERVATIONS


STATION/POSITION TIME  SKY/WX   TEMP    WIND        PRES    VSBY  WAVE
                                AIR SEA DIR/SP/G                  HT/PER
                 (UTC)          (F)     (DEG/KT/KT) (MB)    (MI)  (FT/S)
NY HARB ENTRANCE NOT AVBL
4S FIRE IS       NOT AVBL
23SW MTP         1600            69 70              1017.9          3/ 6
HUDSON CANYON    1600            70 73   50/ 10/ 12 1017.6          3/ 6
EXECUTION ROCKS  1600            76 74   50/  8/ 10   N/A
WESTERN LI SOUND 1600            72      60/  8/ 10   N/A           0
CENTRAL LI SOUND 1500            70 73   90/  6/ 10   N/A           1
EASTERN LI SOUND 1500            69 69  130/  8/ 12   N/A
ROBBINS REEF     1600            73     170/ 10/ 11   N/A
$$


>>>>>>>>>>>>>>>>>>>>>>>>>>>> KEY <<<<<<<<<<<<<<<<<<<<<<<<<<<
>                                                          <
>     SKY/WX - SKY CONDITION/PRESENT WEATHER               <
>     TMP    - TEMPERATURE IN FAHRENHEIT                   <
>     DP     - DEWPOINT IN FAHRENHEIT                      <
>     RH     - RELATIVE HUMIDITY IN PERCENT                <
>     WIND   - DIRECTION AND SPEED IN MPH                  <
>     PRES   - MEAN SEA LEVEL PRESSURE IN INCHES OF HG     <
>     WCI    - WIND CHILL INDEX                            <
>     VSB    - VISIBILITY IN MILES                         <
>     HX     - HEAT INDEX                                  <
>     TC     - TEMPERATURE IN CELSIUS                      <
>     VRB    - VARIABLE WIND DIRECTION                     <
>                                                          <
>>>>>>>>>>>>>>>>>>>>>>>>>>>> KEY <<<<<<<<<<<<<<<<<<<<<<<<<<<





USA.gov is the U.S. government's official web portal to all federal, state and local government web resources and services.